| time (UTC) | temp F | wind direction | speed MPH | gust MPH | rain 1hr in | rain 24hr in | rain mn in | humidity % | barometer mb |
| 20260509233030 | 90 | 305 | 4.0 | 12.0 | 0.00 | 0.00 | 0.00 | 33 | 1007.6 |
| 20260509232515 | 90 | 335 | 2.0 | 12.0 | 0.00 | 0.00 | 0.00 | 33 | 1007.6 |
| 20260509232015 | 90 | 297 | 5.0 | 10.0 | 0.00 | 0.00 | 0.00 | 33 | 1007.6 |
| 20260509231513 | 90 | 307 | 3.0 | 10.0 | 0.00 | 0.00 | 0.00 | 34 | 1007.6 |
| 20260509231013 | 89 | 266 | 3.0 | 12.0 | 0.00 | 0.00 | 0.00 | 37 | 1007.7 |
| 20260509230513 | 89 | 303 | 4.0 | 10.0 | 0.00 | 0.00 | 0.00 | 36 | 1007.7 |
| 20260509230012 | 90 | 308 | 5.0 | 11.0 | 0.00 | 0.00 | 0.00 | 37 | 1007.7 |
| 20260509225512 | 90 | 306 | 4.0 | 11.0 | 0.00 | 0.00 | 0.00 | 37 | 1007.7 |
| 20260509225011 | 90 | 321 | 4.0 | 10.0 | 0.00 | 0.00 | 0.00 | 37 | 1007.8 |
| 20260509224514 | 89 | 279 | 4.0 | 10.0 | 0.00 | 0.00 | 0.00 | 37 | 1007.8 |
| 20260509224011 | 89 | 338 | 4.0 | 11.0 | 0.00 | 0.00 | 0.00 | 38 | 1007.9 |
| 20260509223509 | 89 | 335 | 3.0 | 9.0 | 0.00 | 0.00 | 0.00 | 38 | 1008.0 |
| 20260509223007 | 89 | 4 | 4.0 | 12.0 | 0.00 | 0.00 | 0.00 | 37 | 1008.2 |
| 20260509222508 | 89 | 4 | 3.0 | 12.0 | 0.00 | 0.00 | 0.00 | 38 | 1008.2 |
| 20260509222008 | 89 | 320 | 3.0 | 11.0 | 0.00 | 0.00 | 0.00 | 37 | 1008.3 |
| 20260509221505 | 89 | 326 | 4.0 | 9.0 | 0.00 | 0.00 | 0.00 | 37 | 1008.3 |
| 20260509221005 | 89 | 326 | 4.0 | 11.0 | 0.00 | 0.00 | 0.00 | 39 | 1008.3 |
| 20260509220504 | 88 | 336 | 6.0 | 11.0 | 0.00 | 0.00 | 0.00 | 38 | 1008.4 |
| 20260509220005 | 88 | 290 | 3.0 | 12.0 | 0.00 | 0.00 | 0.00 | 38 | 1008.5 |
| 20260509215501 | 88 | 289 | 4.0 | 12.0 | 0.00 | 0.00 | 0.00 | 39 | 1008.5 |
| 20260509215003 | 87 | 31 | 4.0 | 11.0 | 0.00 | 0.00 | 0.00 | 39 | 1008.6 |
| 20260509214601 | 88 | 333 | 5.0 | 10.0 | 0.00 | 0.00 | 0.00 | 40 | 1008.6 |
| 20260509214100 | 88 | 301 | 4.0 | 10.0 | 0.00 | 0.00 | 0.00 | 41 | 1008.7 |
| 20260509213559 | 87 | 37 | 3.0 | 10.0 | 0.00 | 0.00 | 0.00 | 41 | 1008.7 |
| 20260509213059 | 87 | 307 | 4.0 | 10.0 | 0.00 | 0.00 | 0.00 | 40 | 1008.7 |
| 20260509212558 | 87 | 335 | 5.0 | 16.0 | 0.00 | 0.00 | 0.00 | 39 | 1008.8 |
| 20260509212057 | 87 | 354 | 5.0 | 16.0 | 0.00 | 0.00 | 0.00 | 40 | 1008.9 |
| 20260509211601 | 87 | 337 | 5.0 | 12.0 | 0.00 | 0.00 | 0.00 | 41 | 1008.9 |
| 20260509211057 | 87 | 314 | 2.0 | 17.0 | 0.00 | 0.00 | 0.00 | 41 | 1008.9 |
| 20260509210559 | 87 | 50 | 4.0 | 17.0 | 0.00 | 0.00 | 0.00 | 42 | 1008.9 |
| 20260509210108 | 87 | 60 | 3.0 | 12.0 | 0.00 | 0.00 | 0.00 | 42 | 1009.0 |
| 20260509205558 | 87 | 331 | 4.0 | 9.0 | 0.00 | 0.00 | 0.00 | 41 | 1009.0 |
| 20260509205055 | 87 | 329 | 4.0 | 15.0 | 0.00 | 0.00 | 0.00 | 42 | 1009.0 |
| 20260509204555 | 87 | 318 | 5.0 | 15.0 | 0.00 | 0.00 | 0.00 | 41 | 1009.1 |
| 20260509204054 | 87 | 32 | 3.0 | 13.0 | 0.00 | 0.00 | 0.00 | 42 | 1009.2 |
| 20260509203555 | 86 | 359 | 4.0 | 13.0 | 0.00 | 0.00 | 0.00 | 42 | 1009.3 |
| 20260509203051 | 85 | 15 | 3.0 | 10.0 | 0.00 | 0.00 | 0.00 | 43 | 1009.3 |
| 20260509202552 | 85 | 329 | 5.0 | 12.0 | 0.00 | 0.00 | 0.00 | 43 | 1009.4 |
| 20260509202049 | 84 | 235 | 4.0 | 12.0 | 0.00 | 0.00 | 0.00 | 43 | 1009.5 |
| 20260509201557 | 84 | 302 | 7.0 | 12.0 | 0.00 | 0.00 | 0.00 | 44 | 1009.5 |
| 20260509201047 | 84 | 325 | 5.0 | 12.0 | 0.00 | 0.00 | 0.00 | 45 | 1009.6 |
| 20260509200546 | 84 | 340 | 3.0 | 13.0 | 0.00 | 0.00 | 0.00 | 46 | 1009.6 |
| 20260509200051 | 84 | 354 | 6.0 | 13.0 | 0.00 | 0.00 | 0.00 | 46 | 1009.7 |
| 20260509195548 | 83 | 214 | 6.0 | 13.0 | 0.00 | 0.00 | 0.00 | 47 | 1009.8 |
| 20260509195044 | 83 | 303 | 3.0 | 12.0 | 0.00 | 0.00 | 0.00 | 48 | 1009.9 |
| 20260509194542 | 82 | 312 | 5.0 | 11.0 | 0.00 | 0.00 | 0.00 | 49 | 1009.8 |
| 20260509194043 | 82 | 359 | 5.0 | 14.0 | 0.00 | 0.00 | 0.00 | 49 | 1009.9 |
| 20260509193541 | 82 | 29 | 6.0 | 14.0 | 0.00 | 0.00 | 0.00 | 50 | 1009.9 |
| 20260509193045 | 81 | 322 | 2.0 | 11.0 | 0.00 | 0.00 | 0.00 | 50 | 1010.0 |
| 20260509192540 | 81 | 10 | 4.0 | 11.0 | 0.00 | 0.00 | 0.00 | 51 | 1010.1 |
| 20260509192036 | 80 | 330 | 3.0 | 12.0 | 0.00 | 0.00 | 0.00 | 51 | 1010.2 |
| 20260509191539 | 81 | 293 | 7.0 | 12.0 | 0.00 | 0.00 | 0.00 | 50 | 1010.3 |
| 20260509191034 | 81 | 284 | 6.0 | 11.0 | 0.00 | 0.00 | 0.00 | 50 | 1010.3 |
| 20260509190532 | 80 | 285 | 2.0 | 11.0 | 0.00 | 0.00 | 0.00 | 52 | 1010.4 |
| 20260509190035 | 80 | 317 | 5.0 | 11.0 | 0.00 | 0.00 | 0.00 | 49 | 1010.4 |
| 20260509185531 | 80 | 285 | 4.0 | 9.0 | 0.00 | 0.00 | 0.00 | 51 | 1010.5 |
| 20260509185029 | 80 | 264 | 5.0 | 10.0 | 0.00 | 0.00 | 0.00 | 50 | 1010.5 |
| 20260509184539 | 79 | 324 | 4.0 | 11.0 | 0.00 | 0.00 | 0.00 | 50 | 1010.5 |
| 20260509184027 | 79 | 325 | 4.0 | 11.0 | 0.00 | 0.00 | 0.00 | 51 | 1010.6 |
| 20260509183526 | 79 | 348 | 4.0 | 9.0 | 0.00 | 0.00 | 0.00 | 50 | 1010.6 |
| 20260509183032 | 78 | 335 | 1.0 | 8.0 | 0.00 | 0.00 | 0.00 | 51 | 1010.6 |
| 20260509182522 | 77 | 324 | 3.0 | 8.0 | 0.00 | 0.00 | 0.00 | 51 | 1010.6 |
| 20260509182021 | 77 | 359 | 3.0 | 8.0 | 0.00 | 0.00 | 0.00 | 51 | 1010.7 |
| 20260509181520 | 77 | 295 | 1.0 | 8.0 | 0.00 | 0.00 | 0.00 | 51 | 1010.7 |
| 20260509181019 | 77 | 115 | 2.0 | 8.0 | 0.00 | 0.00 | 0.00 | 53 | 1010.7 |
| 20260509180519 | 77 | 296 | 4.0 | 8.0 | 0.00 | 0.00 | 0.00 | 52 | 1010.8 |
| 20260509180019 | 76 | 321 | 4.0 | 9.0 | 0.00 | 0.00 | 0.00 | 52 | 1010.8 |
| 20260509175522 | 76 | 345 | 3.0 | 9.0 | 0.00 | 0.00 | 0.00 | 52 | 1010.8 |
| 20260509175014 | 75 | 297 | 2.0 | 9.0 | 0.00 | 0.00 | 0.00 | 54 | 1010.9 |
| 20260509174516 | 75 | 314 | 3.0 | 9.0 | 0.00 | 0.00 | 0.00 | 54 | 1010.9 |
| 20260509174011 | 74 | 278 | 2.0 | 9.0 | 0.00 | 0.00 | 0.00 | 56 | 1011.0 |
| 20260509173517 | 74 | 337 | 5.0 | 9.0 | 0.00 | 0.00 | 0.00 | 55 | 1010.9 |
| 20260509173015 | 73 | 328 | 3.0 | 8.0 | 0.00 | 0.00 | 0.00 | 57 | 1010.9 |
| 20260509172507 | 73 | 312 | 2.0 | 10.0 | 0.00 | 0.00 | 0.00 | 57 | 1011.0 |
| 20260509172005 | 72 | 260 | 4.0 | 10.0 | 0.00 | 0.00 | 0.00 | 57 | 1011.0 |
| 20260509171505 | 72 | 333 | 3.0 | 10.0 | 0.00 | 0.00 | 0.00 | 57 | 1011.0 |
| 20260509171004 | 72 | 260 | 4.0 | 10.0 | 0.00 | 0.00 | 0.00 | 58 | 1011.1 |
| 20260509170501 | 71 | 341 | 2.0 | 10.0 | 0.00 | 0.00 | 0.00 | 60 | 1011.1 |
| 20260509170106 | 71 | 256 | 4.0 | 10.0 | 0.00 | 0.00 | 0.00 | 59 | 1011.0 |
| 20260509165602 | 71 | 266 | 3.0 | 9.0 | 0.00 | 0.00 | 0.00 | 59 | 1011.1 |
| 20260509165057 | 71 | 274 | 4.0 | 9.0 | 0.00 | 0.00 | 0.00 | 60 | 1011.2 |
| 20260509164556 | 70 | 264 | 5.0 | 9.0 | 0.00 | 0.00 | 0.00 | 61 | 1011.1 |
| 20260509164058 | 69 | 283 | 1.0 | 10.0 | 0.00 | 0.00 | 0.00 | 62 | 1011.0 |
| 20260509163555 | 69 | 268 | 4.0 | 10.0 | 0.00 | 0.00 | 0.00 | 62 | 1011.1 |
| 20260509163102 | 69 | 241 | 3.0 | 8.0 | 0.00 | 0.00 | 0.00 | 62 | 1011.1 |
| 20260509162552 | 69 | 354 | 2.0 | 9.0 | 0.00 | 0.00 | 0.00 | 63 | 1011.2 |
| 20260509162051 | 68 | 245 | 4.0 | 9.0 | 0.00 | 0.00 | 0.00 | 63 | 1011.3 |
| 20260509161554 | 68 | 307 | 2.0 | 9.0 | 0.00 | 0.00 | 0.00 | 65 | 1011.3 |
| 20260509161051 | 67 | 310 | 4.0 | 9.0 | 0.00 | 0.00 | 0.00 | 65 | 1011.3 |
| 20260509160547 | 67 | 298 | 4.0 | 8.0 | 0.00 | 0.00 | 0.00 | 66 | 1011.3 |
| 20260509160046 | 66 | 343 | 4.0 | 8.0 | 0.00 | 0.00 | 0.00 | 66 | 1011.3 |
| 20260509155546 | 66 | 330 | 3.0 | 9.0 | 0.00 | 0.00 | 0.00 | 67 | 1011.3 |
| 20260509155047 | 66 | 354 | 3.0 | 9.0 | 0.00 | 0.00 | 0.00 | 67 | 1011.4 |
| 20260509154542 | 65 | 274 | 3.0 | 10.0 | 0.00 | 0.00 | 0.00 | 68 | 1011.3 |
| 20260509154040 | 65 | 270 | 6.0 | 10.0 | 0.00 | 0.00 | 0.00 | 68 | 1011.3 |
| 20260509153539 | 64 | 254 | 3.0 | 7.0 | 0.00 | 0.00 | 0.00 | 69 | 1011.3 |
| 20260509153043 | 64 | 330 | 3.0 | 9.0 | 0.00 | 0.00 | 0.00 | 70 | 1011.3 |
| 20260509152537 | 64 | 341 | 3.0 | 9.0 | 0.00 | 0.00 | 0.00 | 71 | 1011.3 |
| 20260509152037 | 63 | 305 | 2.0 | 9.0 | 0.00 | 0.00 | 0.00 | 72 | 1011.3 |
| 20260509151534 | 63 | 319 | 5.0 | 9.0 | 0.00 | 0.00 | 0.00 | 73 | 1011.3 |
| 20260509151033 | 62 | 310 | 3.0 | 6.0 | 0.00 | 0.00 | 0.00 | 74 | 1011.2 |
| 20260509150532 | 62 | 327 | 3.0 | 6.0 | 0.00 | 0.00 | 0.00 | 74 | 1011.2 |
| 20260509150031 | 62 | 354 | 2.0 | 8.0 | 0.00 | 0.00 | 0.00 | 75 | 1011.2 |
| 20260509145533 | 61 | 329 | 3.0 | 9.0 | 0.00 | 0.00 | 0.00 | 75 | 1011.2 |
| 20260509145031 | 61 | 320 | 5.0 | 9.0 | 0.00 | 0.00 | 0.00 | 76 | 1011.3 |
| 20260509144527 | 60 | 320 | 2.0 | 6.0 | 0.00 | 0.00 | 0.00 | 77 | 1011.2 |
| 20260509144026 | 60 | 325 | 3.0 | 5.0 | 0.00 | 0.00 | 0.00 | 78 | 1011.3 |
| 20260509143525 | 60 | 277 | 2.0 | 5.0 | 0.00 | 0.00 | 0.00 | 79 | 1011.3 |
| 20260509143032 | 59 | 315 | 2.0 | 7.0 | 0.00 | 0.00 | 0.00 | 80 | 1011.2 |
| 20260509142521 | 59 | 311 | 2.0 | 7.0 | 0.00 | 0.00 | 0.00 | 80 | 1011.1 |
| 20260509142020 | 59 | 302 | 2.0 | 7.0 | 0.00 | 0.00 | 0.00 | 80 | 1011.1 |
| 20260509141524 | 59 | 241 | 2.0 | 8.0 | 0.00 | 0.00 | 0.00 | 81 | 1011.1 |
| 20260509141017 | 58 | 269 | 4.0 | 8.0 | 0.00 | 0.00 | 0.00 | 81 | 1011.0 |
| 20260509140516 | 58 | 258 | 3.0 | 6.0 | 0.00 | 0.00 | 0.00 | 82 | 1011.0 |
| 20260509140015 | 58 | 322 | 3.0 | 5.0 | 0.00 | 0.00 | 0.00 | 82 | 1011.0 |
| 20260509135517 | 58 | 286 | 2.0 | 4.0 | 0.00 | 0.00 | 0.00 | 83 | 1010.9 |
| 20260509135015 | 58 | 331 | 1.0 | 3.0 | 0.00 | 0.00 | 0.00 | 83 | 1010.9 |
| 20260509134514 | 58 | 281 | 1.0 | 3.0 | 0.00 | 0.00 | 0.00 | 83 | 1010.9 |
| 20260509134012 | 57 | 320 | 1.0 | 3.0 | 0.00 | 0.00 | 0.00 | 84 | 1010.8 |
| 20260509133514 | 57 | 300 | 1.0 | 3.0 | 0.00 | 0.00 | 0.00 | 84 | 1010.8 |
| 20260509133010 | 57 | 303 | 2.0 | 3.0 | 0.00 | 0.00 | 0.00 | 84 | 1010.7 |
| 20260509132509 | 57 | 275 | 1.0 | 3.0 | 0.00 | 0.00 | 0.00 | 84 | 1010.6 |
| 20260509132008 | 57 | 281 | 1.0 | 4.0 | 0.00 | 0.00 | 0.00 | 84 | 1010.7 |
| 20260509131506 | 57 | 298 | 1.0 | 4.0 | 0.00 | 0.00 | 0.00 | 84 | 1010.6 |
| 20260509131006 | 57 | 308 | 1.0 | 3.0 | 0.00 | 0.00 | 0.00 | 84 | 1010.5 |
| 20260509130508 | 57 | 283 | 1.0 | 3.0 | 0.00 | 0.00 | 0.00 | 84 | 1010.5 |
| 20260509130005 | 57 | 289 | 1.0 | 3.0 | 0.00 | 0.00 | 0.00 | 84 | 1010.5 |
| 20260509125509 | 57 | 324 | 1.0 | 3.0 | 0.00 | 0.00 | 0.00 | 84 | 1010.5 |
| 20260509125006 | 57 | 304 | 2.0 | 4.0 | 0.00 | 0.00 | 0.00 | 84 | 1010.5 |
| 20260509124504 | 57 | 315 | 2.0 | 4.0 | 0.00 | 0.00 | 0.00 | 84 | 1010.5 |
| 20260509124004 | 57 | 311 | 2.0 | 4.0 | 0.00 | 0.00 | 0.00 | 84 | 1010.4 |
| 20260509123505 | 57 | 286 | 1.0 | 4.0 | 0.00 | 0.00 | 0.00 | 84 | 1010.4 |
| 20260509123005 | 57 | 285 | 1.0 | 4.0 | 0.00 | 0.00 | 0.00 | 84 | 1010.4 |
| 20260509122503 | 57 | 302 | 2.0 | 3.0 | 0.00 | 0.00 | 0.00 | 84 | 1010.5 |
| 20260509122005 | 57 | 312 | 1.0 | 3.0 | 0.00 | 0.00 | 0.00 | 84 | 1010.4 |
| 20260509121503 | 57 | 269 | 1.0 | 3.0 | 0.00 | 0.00 | 0.00 | 84 | 1010.4 |
| 20260509121002 | 58 | 288 | 1.0 | 3.0 | 0.00 | 0.00 | 0.00 | 83 | 1010.3 |
| 20260509120503 | 58 | 314 | 1.0 | 3.0 | 0.00 | 0.00 | 0.00 | 83 | 1010.4 |
| 20260509120001 | 58 | 301 | 1.0 | 3.0 | 0.00 | 0.00 | 0.00 | 83 | 1010.4 |
| 20260509115501 | 58 | 297 | 1.0 | 2.0 | 0.00 | 0.00 | 0.00 | 83 | 1010.4 |
| 20260509115100 | 58 | 299 | 1.0 | 2.0 | 0.00 | 0.00 | 0.00 | 83 | 1010.5 |
| 20260509114608 | 58 | 299 | 0.0 | 3.0 | 0.00 | 0.00 | 0.00 | 83 | 1010.5 |
| 20260509114059 | 58 | 286 | 1.0 | 3.0 | 0.00 | 0.00 | 0.00 | 82 | 1010.5 |
| 20260509113601 | 58 | 291 | 0.0 | 3.0 | 0.00 | 0.00 | 0.00 | 82 | 1010.5 |
| 20260509113108 | 58 | 278 | 0.0 | 3.0 | 0.00 | 0.00 | 0.00 | 82 | 1010.6 |
| 20260509112557 | 58 | 258 | 1.0 | 3.0 | 0.00 | 0.00 | 0.00 | 82 | 1010.6 |
| 20260509112057 | 58 | 272 | 1.0 | 3.0 | 0.00 | 0.00 | 0.00 | 81 | 1010.6 |
| 20260509111556 | 59 | 277 | 0.0 | 3.0 | 0.00 | 0.00 | 0.00 | 81 | 1010.5 |
| 20260509111059 | 59 | 270 | 2.0 | 3.0 | 0.00 | 0.00 | 0.00 | 81 | 1010.5 |
| 20260509110555 | 59 | 270 | 1.0 | 3.0 | 0.00 | 0.00 | 0.00 | 80 | 1010.6 |
| 20260509110054 | 59 | 268 | 1.0 | 3.0 | 0.00 | 0.00 | 0.00 | 80 | 1010.6 |
| 20260509105556 | 59 | 278 | 1.0 | 3.0 | 0.00 | 0.00 | 0.00 | 80 | 1010.6 |
| 20260509105053 | 59 | 285 | 1.0 | 3.0 | 0.00 | 0.00 | 0.00 | 79 | 1010.6 |
| 20260509104553 | 60 | 267 | 2.0 | 4.0 | 0.00 | 0.00 | 0.00 | 79 | 1010.6 |
| 20260509104052 | 60 | 253 | 1.0 | 4.0 | 0.00 | 0.00 | 0.00 | 79 | 1010.5 |
| 20260509103551 | 60 | 271 | 2.0 | 4.0 | 0.00 | 0.00 | 0.00 | 79 | 1010.5 |
| 20260509103050 | 60 | 277 | 2.0 | 4.0 | 0.00 | 0.00 | 0.00 | 79 | 1010.5 |
| 20260509102550 | 60 | 261 | 2.0 | 4.0 | 0.00 | 0.00 | 0.00 | 79 | 1010.6 |
| 20260509102050 | 60 | 248 | 1.0 | 3.0 | 0.00 | 0.00 | 0.00 | 78 | 1010.6 |
| 20260509101548 | 60 | 260 | 1.0 | 3.0 | 0.00 | 0.00 | 0.00 | 78 | 1010.6 |
| 20260509101047 | 61 | 305 | 0.0 | 4.0 | 0.00 | 0.00 | 0.00 | 78 | 1010.6 |
| 20260509100548 | 61 | 281 | 1.0 | 4.0 | 0.00 | 0.00 | 0.00 | 78 | 1010.6 |
| 20260509100047 | 61 | 275 | 1.0 | 3.0 | 0.00 | 0.00 | 0.00 | 78 | 1010.6 |
| 20260509095546 | 61 | 256 | 1.0 | 3.0 | 0.00 | 0.00 | 0.00 | 78 | 1010.6 |
| 20260509095046 | 61 | 265 | 1.0 | 3.0 | 0.00 | 0.00 | 0.00 | 78 | 1010.6 |
| 20260509094549 | 61 | 277 | 1.0 | 4.0 | 0.00 | 0.00 | 0.00 | 78 | 1010.6 |
| 20260509094045 | 61 | 293 | 1.0 | 4.0 | 0.00 | 0.00 | 0.00 | 78 | 1010.6 |
| 20260509093544 | 61 | 276 | 2.0 | 4.0 | 0.00 | 0.00 | 0.00 | 78 | 1010.6 |
| 20260509093044 | 61 | 264 | 1.0 | 3.0 | 0.00 | 0.00 | 0.00 | 78 | 1010.6 |
| 20260509092543 | 61 | 289 | 2.0 | 4.0 | 0.00 | 0.00 | 0.00 | 78 | 1010.6 |
| 20260509092043 | 62 | 286 | 2.0 | 6.0 | 0.00 | 0.00 | 0.00 | 78 | 1010.6 |
| 20260509091545 | 62 | 313 | 2.0 | 6.0 | 0.00 | 0.00 | 0.00 | 78 | 1010.6 |
| 20260509091042 | 62 | 289 | 2.0 | 4.0 | 0.00 | 0.00 | 0.00 | 78 | 1010.6 |
| 20260509090542 | 62 | 267 | 2.0 | 4.0 | 0.00 | 0.00 | 0.00 | 77 | 1010.6 |
| 20260509090058 | 62 | 306 | 2.0 | 4.0 | 0.00 | 0.00 | 0.00 | 78 | 1010.6 |
| 20260509085544 | 62 | 260 | 1.0 | 4.0 | 0.00 | 0.00 | 0.00 | 77 | 1010.6 |
| 20260509085039 | 62 | 287 | 1.0 | 4.0 | 0.00 | 0.00 | 0.00 | 77 | 1010.7 |
| 20260509084544 | 62 | 299 | 2.0 | 4.0 | 0.00 | 0.00 | 0.00 | 77 | 1010.7 |
| 20260509084038 | 62 | 266 | 2.0 | 4.0 | 0.00 | 0.00 | 0.00 | 76 | 1010.8 |
| 20260509083537 | 62 | 272 | 1.0 | 3.0 | 0.00 | 0.00 | 0.00 | 76 | 1010.8 |
| 20260509083046 | 63 | 295 | 1.0 | 3.0 | 0.00 | 0.00 | 0.00 | 76 | 1010.9 |
| 20260509082536 | 63 | 283 | 1.0 | 2.0 | 0.00 | 0.00 | 0.00 | 75 | 1010.8 |
| 20260509082036 | 63 | 278 | 1.0 | 3.0 | 0.00 | 0.00 | 0.00 | 75 | 1010.9 |
| 20260509081540 | 63 | 311 | 0.0 | 3.0 | 0.00 | 0.00 | 0.00 | 75 | 1010.9 |
| 20260509081036 | 63 | 291 | 0.0 | 2.0 | 0.00 | 0.00 | 0.00 | 74 | 1010.9 |
| 20260509080534 | 63 | 280 | 0.0 | 2.0 | 0.00 | 0.00 | 0.00 | 74 | 1010.9 |
| 20260509080045 | 63 | 281 | 0.0 | 3.0 | 0.00 | 0.00 | 0.00 | 74 | 1010.9 |
| 20260509075534 | 63 | 340 | 1.0 | 3.0 | 0.00 | 0.00 | 0.00 | 73 | 1010.9 |
| 20260509075033 | 63 | 332 | 1.0 | 3.0 | 0.00 | 0.00 | 0.00 | 73 | 1010.9 |
| 20260509074537 | 63 | 336 | 1.0 | 3.0 | 0.00 | 0.00 | 0.00 | 72 | 1010.9 |
| 20260509074036 | 63 | 325 | 1.0 | 3.0 | 0.00 | 0.00 | 0.00 | 72 | 1011.0 |
| 20260509073531 | 64 | 283 | 1.0 | 3.0 | 0.00 | 0.00 | 0.00 | 72 | 1010.9 |
| 20260509073031 | 64 | 274 | 1.0 | 3.0 | 0.00 | 0.00 | 0.00 | 72 | 1011.0 |
| 20260509072531 | 64 | 305 | 1.0 | 4.0 | 0.00 | 0.00 | 0.00 | 72 | 1010.9 |
| 20260509072031 | 64 | 278 | 2.0 | 4.0 | 0.00 | 0.00 | 0.00 | 72 | 1011.0 |
| 20260509071529 | 64 | 299 | 1.0 | 4.0 | 0.00 | 0.00 | 0.00 | 71 | 1011.0 |
| 20260509071028 | 64 | 247 | 2.0 | 4.0 | 0.00 | 0.00 | 0.00 | 71 | 1011.0 |
| 20260509070527 | 65 | 282 | 1.0 | 4.0 | 0.00 | 0.00 | 0.00 | 71 | 1011.0 |
| 20260509070033 | 65 | 303 | 1.0 | 4.0 | 0.00 | 0.00 | 0.00 | 71 | 1011.0 |
| 20260509065526 | 65 | 322 | 2.0 | 4.0 | 0.00 | 0.00 | 0.00 | 71 | 1011.0 |
| 20260509065026 | 65 | 291 | 1.0 | 4.0 | 0.00 | 0.00 | 0.00 | 70 | 1011.0 |
| 20260509064526 | 65 | 325 | 2.0 | 5.0 | 0.00 | 0.00 | 0.00 | 70 | 1011.0 |
| 20260509064029 | 66 | 287 | 2.0 | 5.0 | 0.00 | 0.00 | 0.00 | 70 | 1011.1 |
| 20260509063527 | 66 | 303 | 2.0 | 5.0 | 0.00 | 0.00 | 0.00 | 70 | 1011.0 |
| 20260509063027 | 66 | 339 | 2.0 | 5.0 | 0.00 | 0.00 | 0.00 | 69 | 1011.0 |
| 20260509062526 | 66 | 288 | 2.0 | 4.0 | 0.00 | 0.00 | 0.00 | 69 | 1011.0 |
| 20260509062026 | 67 | 307 | 2.0 | 5.0 | 0.00 | 0.00 | 0.00 | 69 | 1011.0 |
| 20260509061525 | 67 | 237 | 3.0 | 7.0 | 0.00 | 0.00 | 0.00 | 68 | 1011.0 |
| 20260509061025 | 67 | 318 | 3.0 | 7.0 | 0.00 | 0.00 | 0.00 | 68 | 1011.0 |
| 20260509060525 | 67 | 303 | 3.0 | 7.0 | 0.00 | 0.00 | 0.00 | 68 | 1011.0 |
| 20260509060025 | 68 | 328 | 2.0 | 6.0 | 0.00 | 0.00 | 0.00 | 68 | 1010.9 |
| 20260509055525 | 68 | 307 | 4.0 | 7.0 | 0.00 | 0.00 | 0.00 | 68 | 1010.9 |
| 20260509055024 | 68 | 347 | 2.0 | 5.0 | 0.00 | 0.00 | 0.00 | 67 | 1010.9 |
| 20260509054525 | 69 | 341 | 3.0 | 6.0 | 0.00 | 0.00 | 0.00 | 67 | 1010.8 |
| 20260509054026 | 69 | 340 | 3.0 | 6.0 | 0.00 | 0.00 | 0.00 | 66 | 1010.8 |
| 20260509053525 | 69 | 343 | 3.0 | 8.0 | 0.00 | 0.00 | 0.00 | 65 | 1010.8 |
| 20260509053035 | 69 | 331 | 3.0 | 9.0 | 0.00 | 0.00 | 0.00 | 65 | 1010.8 |
| 20260509052523 | 70 | 312 | 2.0 | 9.0 | 0.00 | 0.00 | 0.00 | 65 | 1010.8 |
| 20260509052025 | 70 | 332 | 3.0 | 13.0 | 0.00 | 0.00 | 0.00 | 64 | 1010.8 |
| 20260509051524 | 70 | 322 | 3.0 | 13.0 | 0.00 | 0.00 | 0.00 | 64 | 1010.7 |
| 20260509051027 | 70 | 326 | 3.0 | 10.0 | 0.00 | 0.00 | 0.00 | 63 | 1010.6 |
| 20260509050524 | 71 | 347 | 4.0 | 10.0 | 0.00 | 0.00 | 0.00 | 63 | 1010.6 |
| 20260509050042 | 71 | 292 | 5.0 | 9.0 | 0.00 | 0.00 | 0.00 | 63 | 1010.6 |
| 20260509045523 | 71 | 322 | 3.0 | 9.0 | 0.00 | 0.00 | 0.00 | 62 | 1010.6 |
| 20260509045023 | 71 | 271 | 3.0 | 9.0 | 0.00 | 0.00 | 0.00 | 62 | 1010.6 |
| 20260509044523 | 72 | 291 | 3.0 | 10.0 | 0.00 | 0.00 | 0.00 | 61 | 1010.6 |
| 20260509044024 | 72 | 283 | 5.0 | 11.0 | 0.00 | 0.00 | 0.00 | 61 | 1010.5 |
| 20260509043522 | 73 | 244 | 6.0 | 13.0 | 0.00 | 0.00 | 0.00 | 60 | 1010.5 |
| 20260509043034 | 73 | 346 | 7.0 | 13.0 | 0.00 | 0.00 | 0.00 | 59 | 1010.4 |
| 20260509042523 | 73 | 341 | 5.0 | 13.0 | 0.00 | 0.00 | 0.00 | 59 | 1010.4 |
| 20260509042023 | 74 | 308 | 4.0 | 10.0 | 0.00 | 0.00 | 0.00 | 59 | 1010.3 |
| 20260509041522 | 74 | 339 | 4.0 | 10.0 | 0.00 | 0.00 | 0.00 | 59 | 1010.2 |
| 20260509041023 | 74 | 321 | 3.0 | 8.0 | 0.00 | 0.00 | 0.00 | 58 | 1010.2 |
| 20260509040522 | 74 | 309 | 4.0 | 9.0 | 0.00 | 0.00 | 0.00 | 58 | 1010.1 |
| 20260509040022 | 74 | 300 | 4.0 | 9.0 | 0.00 | 0.00 | 0.00 | 58 | 1010.1 |
| 20260509035522 | 75 | 286 | 3.0 | 9.0 | 0.00 | 0.00 | 0.00 | 57 | 1010.1 |
| 20260509035022 | 75 | 298 | 3.0 | 8.0 | 0.00 | 0.00 | 0.00 | 57 | 1010.0 |
| 20260509034522 | 75 | 318 | 3.0 | 9.0 | 0.00 | 0.00 | 0.00 | 56 | 1010.0 |
| 20260509034021 | 75 | 345 | 3.0 | 9.0 | 0.00 | 0.00 | 0.00 | 56 | 1010.0 |
| 20260509033522 | 76 | 310 | 3.0 | 8.0 | 0.00 | 0.00 | 0.00 | 56 | 1010.0 |
| 20260509033029 | 76 | 328 | 3.0 | 8.0 | 0.00 | 0.00 | 0.00 | 55 | 1010.0 |
| 20260509032525 | 76 | 251 | 4.0 | 9.0 | 0.00 | 0.00 | 0.00 | 54 | 1009.8 |
| 20260509032020 | 77 | 299 | 4.0 | 9.0 | 0.00 | 0.00 | 0.00 | 54 | 1009.8 |
| 20260509031526 | 77 | 283 | 4.0 | 9.0 | 0.00 | 0.00 | 0.00 | 54 | 1009.8 |
| 20260509031020 | 77 | 299 | 4.0 | 9.0 | 0.00 | 0.00 | 0.00 | 53 | 1009.7 |
| 20260509030520 | 78 | 324 | 3.0 | 6.0 | 0.00 | 0.00 | 0.00 | 52 | 1009.7 |
| 20260509030022 | 78 | 321 | 3.0 | 9.0 | 0.00 | 0.00 | 0.00 | 52 | 1009.7 |
| 20260509025521 | 78 | 278 | 4.0 | 9.0 | 0.00 | 0.00 | 0.00 | 51 | 1009.7 |
| 20260509025020 | 79 | 305 | 3.0 | 8.0 | 0.00 | 0.00 | 0.00 | 50 | 1009.7 |
| 20260509024521 | 79 | 337 | 4.0 | 10.0 | 0.00 | 0.00 | 0.00 | 49 | 1009.6 |
| 20260509024026 | 79 | 337 | 5.0 | 10.0 | 0.00 | 0.00 | 0.00 | 48 | 1009.6 |
| 20260509023520 | 80 | 317 | 3.0 | 9.0 | 0.00 | 0.00 | 0.00 | 48 | 1009.6 |
| 20260509023020 | 80 | 291 | 4.0 | 10.0 | 0.00 | 0.00 | 0.00 | 47 | 1009.6 |
| 20260509022519 | 81 | 259 | 4.0 | 10.0 | 0.00 | 0.00 | 0.00 | 46 | 1009.6 |
| 20260509022019 | 81 | 326 | 5.0 | 11.0 | 0.00 | 0.00 | 0.00 | 46 | 1009.5 |
| 20260509021519 | 81 | 280 | 5.0 | 13.0 | 0.00 | 0.00 | 0.00 | 46 | 1009.6 |
| 20260509021018 | 82 | 281 | 5.0 | 13.0 | 0.00 | 0.00 | 0.00 | 46 | 1009.4 |
| 20260509020520 | 82 | 305 | 4.0 | 11.0 | 0.00 | 0.00 | 0.00 | 45 | 1009.4 |
| 20260509020021 | 82 | 318 | 6.0 | 11.0 | 0.00 | 0.00 | 0.00 | 45 | 1009.4 |
| 20260509015518 | 82 | 324 | 6.0 | 13.0 | 0.00 | 0.00 | 0.00 | 45 | 1009.4 |
| 20260509015024 | 83 | 332 | 6.0 | 13.0 | 0.00 | 0.00 | 0.00 | 44 | 1009.4 |
| 20260509014518 | 83 | 324 | 5.0 | 13.0 | 0.00 | 0.00 | 0.00 | 44 | 1009.4 |
| 20260509014017 | 83 | 311 | 5.0 | 13.0 | 0.00 | 0.00 | 0.00 | 42 | 1009.5 |
| 20260509013517 | 83 | 324 | 4.0 | 10.0 | 0.00 | 0.00 | 0.00 | 42 | 1009.5 |
| 20260509013017 | 83 | 332 | 5.0 | 14.0 | 0.00 | 0.00 | 0.00 | 43 | 1009.5 |
| 20260509012516 | 83 | 349 | 7.0 | 11.0 | 0.00 | 0.00 | 0.00 | 41 | 1009.5 |
| 20260509012017 | 83 | 344 | 4.0 | 12.0 | 0.00 | 0.00 | 0.00 | 41 | 1009.6 |
| 20260509011515 | 83 | 260 | 7.0 | 13.0 | 0.00 | 0.00 | 0.00 | 40 | 1009.6 |
| 20260509011015 | 84 | 337 | 7.0 | 13.0 | 0.00 | 0.00 | 0.00 | 40 | 1009.6 |
| 20260509010515 | 84 | 285 | 4.0 | 10.0 | 0.00 | 0.00 | 0.00 | 39 | 1009.6 |
| 20260509010016 | 84 | 12 | 4.0 | 12.0 | 0.00 | 0.00 | 0.00 | 39 | 1009.7 |
| 20260509005514 | 84 | 330 | 5.0 | 12.0 | 0.00 | 0.00 | 0.00 | 39 | 1009.8 |
| 20260509005013 | 84 | 320 | 6.0 | 13.0 | 0.00 | 0.00 | 0.00 | 39 | 1009.8 |
| 20260509004514 | 85 | 330 | 4.0 | 10.0 | 0.00 | 0.00 | 0.00 | 38 | 1009.9 |
| 20260509004012 | 85 | 334 | 4.0 | 12.0 | 0.00 | 0.00 | 0.00 | 38 | 1009.9 |
| 20260509003512 | 85 | 301 | 6.0 | 12.0 | 0.00 | 0.00 | 0.00 | 36 | 1010.0 |
| 20260509003012 | 85 | 291 | 5.0 | 10.0 | 0.00 | 0.00 | 0.00 | 36 | 1010.0 |
| 20260509002511 | 85 | 291 | 3.0 | 10.0 | 0.00 | 0.00 | 0.00 | 35 | 1010.0 |
| 20260509002014 | 85 | 346 | 2.0 | 13.0 | 0.00 | 0.00 | 0.00 | 35 | 1010.1 |
| 20260509001510 | 85 | 354 | 7.0 | 14.0 | 0.00 | 0.00 | 0.00 | 34 | 1010.1 |
| 20260509001009 | 85 | 303 | 4.0 | 14.0 | 0.00 | 0.00 | 0.00 | 34 | 1010.1 |
| 20260509000509 | 86 | 341 | 5.0 | 13.0 | 0.00 | 0.00 | 0.00 | 34 | 1010.1 |
| 20260509000009 | 85 | 324 | 5.0 | 13.0 | 0.00 | 0.00 | 0.00 | 34 | 1010.1 |
| 20260508235509 | 85 | 254 | 6.0 | 13.0 | 0.00 | 0.00 | 0.00 | 35 | 1010.1 |
| 20260508235009 | 85 | 328 | 4.0 | 13.0 | 0.00 | 0.00 | 0.00 | 36 | 1010.1 |
| 20260508234509 | 85 | 235 | 5.0 | 16.0 | 0.00 | 0.00 | 0.00 | 36 | 1010.1 |
| 20260508234007 | 86 | 311 | 8.0 | 16.0 | 0.00 | 0.00 | 0.00 | 35 | 1010.2 |
| 20260508233507 | 86 | 318 | 2.0 | 9.0 | 0.00 | 0.00 | 0.00 | 40 | 1010.2 |